Time,TemperatureF,DewpointF,PressureIn,WindDirection,WindDirectionDegrees,WindSpeedMPH,WindSpeedGustMPH,Humidity,HourlyPrecipIn,Conditions,Clouds,dailyrainin,SoftwareType,DateUTC
2013-02-22 00:00:00,33.0,24.3,29.65,WSW,247,5.0,26.0,70,0.00,,,0.00,Weather View 32 v70,2013-02-22 05:00:00,
2013-02-22 00:05:00,33.0,24.6,29.66,NE,45,20.0,26.0,71,0.00,,,0.00,Weather View 32 v70,2013-02-22 05:05:00,
2013-02-22 00:10:00,33.0,24.6,29.66,SSE,157,4.0,26.0,71,0.00,,,0.00,Weather View 32 v70,2013-02-22 05:10:00,
2013-02-22 00:15:00,33.0,24.6,29.66,NNE,22,6.0,26.0,71,0.00,,,0.00,Weather View 32 v70,2013-02-22 05:15:00,
2013-02-22 00:20:00,33.0,24.6,29.66,NE,45,11.0,26.0,71,0.00,,,0.00,Weather View 32 v70,2013-02-22 05:20:00,
2013-02-22 00:25:00,33.0,24.6,29.67,NNE,22,8.0,26.0,71,0.00,,,0.00,Weather View 32 v70,2013-02-22 05:25:00,
2013-02-22 00:30:00,33.0,24.6,29.67,NE,45,12.0,26.0,71,0.00,,,0.00,Weather View 32 v70,2013-02-22 05:30:00,
2013-02-22 00:35:00,33.0,24.6,29.66,East,90,5.0,26.0,71,0.00,,,0.00,Weather View 32 v70,2013-02-22 05:35:00,
2013-02-22 00:40:00,33.0,25.0,29.67,NE,45,12.0,26.0,72,0.00,,,0.00,Weather View 32 v70,2013-02-22 05:40:00,
2013-02-22 00:45:00,32.0,24.3,29.67,NNE,22,17.0,26.0,73,0.00,,,0.00,Weather View 32 v70,2013-02-22 05:45:00,
2013-02-22 00:50:00,32.0,24.3,29.67,ENE,67,6.0,26.0,73,0.00,,,0.00,Weather View 32 v70,2013-02-22 05:50:00,
2013-02-22 00:55:00,32.0,24.3,29.67,NNE,22,9.0,26.0,73,0.00,,,0.00,Weather View 32 v70,2013-02-22 05:55:00,
2013-02-22 01:00:00,32.0,24.6,29.68,SSE,157,3.0,26.0,74,0.00,,,0.00,Weather View 32 v70,2013-02-22 06:00:00,
2013-02-22 01:05:00,32.0,25.0,29.68,NE,45,9.0,26.0,75,0.00,,,0.00,Weather View 32 v70,2013-02-22 06:05:00,
2013-02-22 01:10:00,31.0,24.0,29.68,ESE,112,5.0,26.0,75,0.00,,,0.00,Weather View 32 v70,2013-02-22 06:10:00,
2013-02-22 01:15:00,31.0,23.7,29.68,NE,45,14.0,26.0,74,0.00,,,0.00,Weather View 32 v70,2013-02-22 06:15:00,
2013-02-22 01:20:00,31.0,23.7,29.69,North,360,13.0,25.0,74,0.00,,,0.00,Weather View 32 v70,2013-02-22 06:20:00,
2013-02-22 01:25:00,31.0,23.7,29.69,South,180,2.0,22.0,74,0.00,,,0.00,Weather View 32 v70,2013-02-22 06:25:00,
2013-02-22 01:30:00,31.0,24.0,29.69,NW,315,4.0,22.0,75,0.00,,,0.00,Weather View 32 v70,2013-02-22 06:30:00,
2013-02-22 01:35:00,31.0,24.0,29.70,NNE,22,13.0,22.0,75,0.00,,,0.00,Weather View 32 v70,2013-02-22 06:35:00,
2013-02-22 01:40:00,31.0,23.7,29.69,NE,45,16.0,22.0,74,0.00,,,0.00,Weather View 32 v70,2013-02-22 06:40:00,
2013-02-22 01:45:00,31.0,24.0,29.70,North,360,8.0,22.0,75,0.00,,,0.00,Weather View 32 v70,2013-02-22 06:45:00,
2013-02-22 01:50:00,31.0,23.7,29.70,NW,315,12.0,22.0,74,0.00,,,0.00,Weather View 32 v70,2013-02-22 06:50:00,
2013-02-22 01:55:00,31.0,23.4,29.70,WSW,247,6.0,22.0,73,0.00,,,0.00,Weather View 32 v70,2013-02-22 06:55:00,
2013-02-22 02:00:00,31.0,23.4,29.72,North,360,12.0,22.0,73,0.00,,,0.00,Weather View 32 v70,2013-02-22 07:00:00,
2013-02-22 02:05:00,31.0,23.4,29.72,ENE,67,5.0,22.0,73,0.00,,,0.00,Weather View 32 v70,2013-02-22 07:05:00,
2013-02-22 02:10:00,31.0,23.4,29.72,ENE,67,7.0,22.0,73,0.00,,,0.00,Weather View 32 v70,2013-02-22 07:10:00,
2013-02-22 02:15:00,31.0,23.4,29.72,NNE,22,11.0,22.0,73,0.00,,,0.00,Weather View 32 v70,2013-02-22 07:15:00,
2013-02-22 02:20:00,31.0,23.4,29.72,NE,45,12.0,25.0,73,0.00,,,0.00,Weather View 32 v70,2013-02-22 07:20:00,
2013-02-22 02:25:00,31.0,23.0,29.72,West,270,9.0,25.0,72,0.00,,,0.00,Weather View 32 v70,2013-02-22 07:25:00,
2013-02-22 02:30:00,31.0,23.0,29.73,NE,45,7.0,25.0,72,0.00,,,0.00,Weather View 32 v70,2013-02-22 07:30:00,
2013-02-22 02:35:00,31.0,23.0,29.73,NE,45,13.0,25.0,72,0.00,,,0.00,Weather View 32 v70,2013-02-22 07:35:00,
2013-02-22 02:40:00,31.0,23.0,29.73,NE,45,8.0,25.0,72,0.00,,,0.00,Weather View 32 v70,2013-02-22 07:40:00,
2013-02-22 02:45:00,31.0,23.4,29.73,NE,45,8.0,25.0,73,0.00,,,0.00,Weather View 32 v70,2013-02-22 07:45:00,
2013-02-22 02:50:00,31.0,23.4,29.74,NNW,337,10.0,25.0,73,0.00,,,0.00,Weather View 32 v70,2013-02-22 07:50:00,
2013-02-22 02:55:00,31.0,23.4,29.74,NNE,22,6.0,25.0,73,0.00,,,0.00,Weather View 32 v70,2013-02-22 07:55:00,
2013-02-22 03:00:00,31.0,23.4,29.74,NNE,22,8.0,25.0,73,0.00,,,0.00,Weather View 32 v70,2013-02-22 08:00:00,
2013-02-22 03:05:00,30.0,22.4,29.76,NW,315,8.0,25.0,73,0.00,,,0.00,Weather View 32 v70,2013-02-22 08:05:00,
2013-02-22 03:10:00,30.0,22.4,29.76,NE,45,17.0,25.0,73,0.00,,,0.00,Weather View 32 v70,2013-02-22 08:10:00,
2013-02-22 03:15:00,30.0,22.4,29.75,North,360,15.0,25.0,73,0.00,,,0.00,Weather View 32 v70,2013-02-22 08:15:00,
2013-02-22 03:20:00,30.0,22.4,29.72,ESE,112,12.0,23.0,73,0.00,,,0.00,Weather View 32 v70,2013-02-22 08:20:00,
2013-02-22 03:25:00,30.0,22.7,29.75,NNE,22,13.0,23.0,74,0.00,,,0.00,Weather View 32 v70,2013-02-22 08:25:00,
2013-02-22 03:30:00,30.0,22.7,29.75,NE,45,10.0,23.0,74,0.00,,,0.00,Weather View 32 v70,2013-02-22 08:30:00,
2013-02-22 03:35:00,29.0,22.1,29.75,NNE,22,12.0,23.0,75,0.00,,,0.00,Weather View 32 v70,2013-02-22 08:35:00,
2013-02-22 03:40:00,29.0,22.1,29.75,NE,45,8.0,23.0,75,0.00,,,0.00,Weather View 32 v70,2013-02-22 08:40:00,
2013-02-22 03:45:00,29.0,22.1,29.75,North,360,5.0,23.0,75,0.00,,,0.00,Weather View 32 v70,2013-02-22 08:45:00,
2013-02-22 03:50:00,29.0,22.1,29.75,NE,45,4.0,23.0,75,0.00,,,0.00,Weather View 32 v70,2013-02-22 08:50:00,
2013-02-22 03:55:00,29.0,22.1,29.75,NNW,337,2.0,23.0,75,0.00,,,0.00,Weather View 32 v70,2013-02-22 08:55:00,
2013-02-22 04:00:00,29.0,22.1,29.76,SSE,157,3.0,23.0,75,0.00,,,0.00,Weather View 32 v70,2013-02-22 09:00:00,
2013-02-22 04:05:00,29.0,22.1,29.76,NE,45,10.0,23.0,75,0.00,,,0.00,Weather View 32 v70,2013-02-22 09:05:00,
2013-02-22 04:10:00,29.0,21.8,29.76,SE,135,5.0,23.0,74,0.00,,,0.00,Weather View 32 v70,2013-02-22 09:10:00,
2013-02-22 04:15:00,29.0,21.8,29.76,South,180,5.0,23.0,74,0.00,,,0.00,Weather View 32 v70,2013-02-22 09:15:00,
2013-02-22 04:20:00,29.0,21.8,29.77,SE,135,4.0,19.0,74,0.00,,,0.00,Weather View 32 v70,2013-02-22 09:20:00,
2013-02-22 04:25:00,29.0,22.1,29.77,NE,45,11.0,19.0,75,0.00,,,0.00,Weather View 32 v70,2013-02-22 09:25:00,
2013-02-22 04:30:00,29.0,22.1,29.76,NE,45,10.0,19.0,75,0.00,,,0.00,Weather View 32 v70,2013-02-22 09:30:00,
2013-02-22 04:35:00,29.0,22.1,29.76,SSE,157,1.0,19.0,75,0.00,,,0.00,Weather View 32 v70,2013-02-22 09:35:00,
2013-02-22 04:40:00,29.0,22.1,29.76,WSW,247,3.0,19.0,75,0.00,,,0.00,Weather View 32 v70,2013-02-22 09:40:00,
2013-02-22 04:45:00,28.0,21.1,29.77,SE,135,5.0,20.0,75,0.00,,,0.00,Weather View 32 v70,2013-02-22 09:45:00,
2013-02-22 04:50:00,28.0,21.1,29.76,NE,45,10.0,22.0,75,0.00,,,0.00,Weather View 32 v70,2013-02-22 09:50:00,
2013-02-22 04:55:00,28.0,21.4,29.76,SSW,202,5.0,22.0,76,0.00,,,0.00,Weather View 32 v70,2013-02-22 09:55:00,
2013-02-22 05:00:00,28.0,21.4,29.76,NNE,22,7.0,22.0,76,0.00,,,0.00,Weather View 32 v70,2013-02-22 10:00:00,
2013-02-22 05:05:00,28.0,21.7,29.77,North,360,4.0,22.0,77,0.00,,,0.00,Weather View 32 v70,2013-02-22 10:05:00,
2013-02-22 05:10:00,28.0,21.7,29.76,North,360,10.0,22.0,77,0.00,,,0.00,Weather View 32 v70,2013-02-22 10:10:00,
2013-02-22 05:15:00,28.0,21.7,29.76,North,360,7.0,22.0,77,0.00,,,0.00,Weather View 32 v70,2013-02-22 10:15:00,
2013-02-22 05:20:00,28.0,21.7,29.77,North,360,7.0,22.0,77,0.00,,,0.00,Weather View 32 v70,2013-02-22 10:20:00,
2013-02-22 05:25:00,28.0,21.4,29.77,NE,45,10.0,22.0,76,0.00,,,0.00,Weather View 32 v70,2013-02-22 10:25:00,
2013-02-22 05:30:00,28.0,21.7,29.76,NE,45,13.0,22.0,77,0.00,,,0.00,Weather View 32 v70,2013-02-22 10:30:00,
2013-02-22 05:35:00,27.0,20.8,29.77,North,360,10.0,22.0,77,0.00,,,0.00,Weather View 32 v70,2013-02-22 10:35:00,
2013-02-22 05:40:00,27.0,20.8,29.78,NNE,22,10.0,22.0,77,0.00,,,0.00,Weather View 32 v70,2013-02-22 10:40:00,
2013-02-22 05:45:00,27.0,20.8,29.78,NE,45,12.0,22.0,77,0.00,,,0.00,Weather View 32 v70,2013-02-22 10:45:00,
2013-02-22 05:50:00,27.0,20.8,29.78,NNE,22,8.0,17.0,77,0.00,,,0.00,Weather View 32 v70,2013-02-22 10:50:00,
2013-02-22 05:55:00,27.0,20.8,29.78,ENE,67,8.0,17.0,77,0.00,,,0.00,Weather View 32 v70,2013-02-22 10:55:00,
2013-02-22 06:00:00,27.0,20.8,29.78,NE,45,10.0,17.0,77,0.00,,,0.00,Weather View 32 v70,2013-02-22 11:00:00,
2013-02-22 06:05:00,27.0,20.8,29.78,NE,45,14.0,17.0,77,0.00,,,0.00,Weather View 32 v70,2013-02-22 11:05:00,
2013-02-22 06:10:00,27.0,20.8,29.78,ENE,67,3.0,20.0,77,0.00,,,0.00,Weather View 32 v70,2013-02-22 11:10:00,
2013-02-22 06:15:00,27.0,21.1,29.78,NNE,22,6.0,20.0,78,0.00,,,0.00,Weather View 32 v70,2013-02-22 11:15:00,
2013-02-22 06:20:00,27.0,21.1,29.78,NNE,22,7.0,20.0,78,0.00,,,0.00,Weather View 32 v70,2013-02-22 11:20:00,
2013-02-22 06:25:00,27.0,21.4,29.78,NNE,22,5.0,20.0,79,0.00,,,0.00,Weather View 32 v70,2013-02-22 11:25:00,
2013-02-22 06:30:00,27.0,21.1,29.79,South,180,4.0,20.0,78,0.00,,,0.00,Weather View 32 v70,2013-02-22 11:30:00,
2013-02-22 06:35:00,27.0,21.7,29.79,NNE,22,13.0,20.0,80,0.00,,,0.00,Weather View 32 v70,2013-02-22 11:35:00,
2013-02-22 06:40:00,26.0,20.7,29.80,North,360,7.0,20.0,80,0.00,,,0.00,Weather View 32 v70,2013-02-22 11:40:00,
2013-02-22 06:45:00,26.0,21.0,29.80,North,360,10.0,20.0,81,0.00,,,0.00,Weather View 32 v70,2013-02-22 11:45:00,
2013-02-22 06:50:00,27.0,21.1,29.81,NNE,22,7.0,20.0,78,0.00,,,0.00,Weather View 32 v70,2013-02-22 11:50:00,
2013-02-22 06:55:00,27.0,21.1,29.83,NNW,337,1.0,20.0,78,0.00,,,0.00,Weather View 32 v70,2013-02-22 11:55:00,
2013-02-22 07:00:00,27.0,20.8,29.83,North,360,7.0,20.0,77,0.00,,,0.00,Weather View 32 v70,2013-02-22 12:00:00,
2013-02-22 07:05:00,27.0,20.8,29.84,North,360,11.0,20.0,77,0.00,,,0.00,Weather View 32 v70,2013-02-22 12:05:00,
2013-02-22 07:10:00,27.0,20.8,29.84,NNE,22,6.0,17.0,77,0.00,,,0.00,Weather View 32 v70,2013-02-22 12:10:00,
2013-02-22 07:15:00,27.0,20.8,29.84,NE,45,12.0,17.0,77,0.00,,,0.00,Weather View 32 v70,2013-02-22 12:15:00,
2013-02-22 07:20:00,27.0,20.8,29.85,NE,45,8.0,17.0,77,0.00,,,0.00,Weather View 32 v70,2013-02-22 12:20:00,
2013-02-22 07:25:00,27.0,20.4,29.86,NNE,22,9.0,17.0,76,0.00,,,0.00,Weather View 32 v70,2013-02-22 12:25:00,
2013-02-22 07:30:00,28.0,21.4,29.86,NE,45,7.0,17.0,76,0.00,,,0.00,Weather View 32 v70,2013-02-22 12:30:00,
2013-02-22 07:35:00,28.0,21.4,29.86,NNE,22,6.0,19.0,76,0.00,,,0.00,Weather View 32 v70,2013-02-22 12:35:00,
2013-02-22 07:40:00,28.0,21.1,29.87,NE,45,10.0,19.0,75,0.00,,,0.00,Weather View 32 v70,2013-02-22 12:40:00,
2013-02-22 07:45:00,28.0,20.8,29.88,NE,45,15.0,19.0,74,0.00,,,0.00,Weather View 32 v70,2013-02-22 12:45:00,
2013-02-22 07:50:00,29.0,22.1,29.88,NW,315,2.0,19.0,75,0.00,,,0.00,Weather View 32 v70,2013-02-22 12:50:00,
2013-02-22 07:55:00,28.0,21.1,29.88,NE,45,10.0,19.0,75,0.00,,,0.00,Weather View 32 v70,2013-02-22 12:55:00,
2013-02-22 08:00:00,28.0,20.8,29.88,East,90,4.0,19.0,74,0.00,,,0.00,Weather View 32 v70,2013-02-22 13:00:00,
2013-02-22 08:05:00,28.0,20.8,29.88,North,360,7.0,19.0,74,0.00,,,0.00,Weather View 32 v70,2013-02-22 13:05:00,
2013-02-22 08:10:00,28.0,20.5,29.88,NE,45,14.0,19.0,73,0.00,,,0.00,Weather View 32 v70,2013-02-22 13:10:00,
2013-02-22 08:15:00,28.0,20.5,29.89,NE,45,9.0,19.0,73,0.00,,,0.00,Weather View 32 v70,2013-02-22 13:15:00,
2013-02-22 08:20:00,29.0,21.1,29.89,NNE,22,3.0,19.0,72,0.00,,,0.00,Weather View 32 v70,2013-02-22 13:20:00,
2013-02-22 08:25:00,29.0,21.1,29.90,NE,45,9.0,19.0,72,0.00,,,0.00,Weather View 32 v70,2013-02-22 13:25:00,
2013-02-22 08:30:00,29.0,21.1,29.90,NNE,22,10.0,19.0,72,0.00,,,0.00,Weather View 32 v70,2013-02-22 13:30:00,
2013-02-22 08:35:00,29.0,20.8,29.90,NE,45,5.0,19.0,71,0.00,,,0.00,Weather View 32 v70,2013-02-22 13:35:00,
2013-02-22 08:40:00,29.0,20.4,29.90,ENE,67,5.0,19.0,70,0.00,,,0.00,Weather View 32 v70,2013-02-22 13:40:00,
2013-02-22 08:45:00,29.0,20.4,29.90,North,360,5.0,19.0,70,0.00,,,0.00,Weather View 32 v70,2013-02-22 13:45:00,
2013-02-22 08:50:00,29.0,20.1,29.90,ENE,67,7.0,20.0,69,0.00,,,0.00,Weather View 32 v70,2013-02-22 13:50:00,
2013-02-22 08:55:00,29.0,19.8,29.90,NE,45,15.0,20.0,68,0.00,,,0.00,Weather View 32 v70,2013-02-22 13:55:00,
2013-02-22 09:00:00,29.0,19.8,29.91,NNE,22,11.0,20.0,68,0.00,,,0.00,Weather View 32 v70,2013-02-22 14:00:00,
2013-02-22 09:05:00,30.0,20.4,29.91,ENE,67,12.0,20.0,67,0.00,,,0.00,Weather View 32 v70,2013-02-22 14:05:00,
2013-02-22 09:10:00,30.0,20.4,29.91,NE,45,10.0,20.0,67,0.00,,,0.00,Weather View 32 v70,2013-02-22 14:10:00,
2013-02-22 09:15:00,30.0,20.0,29.92,North,360,13.0,20.0,66,0.00,,,0.00,Weather View 32 v70,2013-02-22 14:15:00,
2013-02-22 09:20:00,31.0,20.6,29.93,NE,45,14.0,20.0,65,0.00,,,0.00,Weather View 32 v70,2013-02-22 14:20:00,
2013-02-22 09:25:00,31.0,19.9,29.94,East,90,5.0,20.0,63,0.00,,,0.00,Weather View 32 v70,2013-02-22 14:25:00,
2013-02-22 09:30:00,32.0,20.8,29.94,West,270,7.0,20.0,63,0.00,,,0.00,Weather View 32 v70,2013-02-22 14:30:00,
2013-02-22 09:36:00,31.0,19.9,29.94,NNE,22,6.0,20.0,63,0.00,,,0.00,Weather View 32 v70,2013-02-22 14:36:00,
2013-02-22 09:41:00,31.0,19.9,29.94,NE,45,15.0,20.0,63,0.00,,,0.00,Weather View 32 v70,2013-02-22 14:41:00,
2013-02-22 09:46:00,31.0,20.2,29.94,NE,45,9.0,20.0,64,0.00,,,0.00,Weather View 32 v70,2013-02-22 14:46:00,
2013-02-22 09:51:00,30.0,19.3,29.94,NE,45,7.0,20.0,64,0.00,,,0.00,Weather View 32 v70,2013-02-22 14:51:00,
2013-02-22 09:56:00,31.0,19.9,29.94,North,360,7.0,20.0,63,0.00,,,0.00,Weather View 32 v70,2013-02-22 14:56:00,
2013-02-22 10:01:00,32.0,20.8,29.94,SSE,157,5.0,20.0,63,0.00,,,0.00,Weather View 32 v70,2013-02-22 15:01:00,
2013-02-22 10:06:00,32.0,20.8,29.94,NW,315,9.0,20.0,63,0.00,,,0.00,Weather View 32 v70,2013-02-22 15:06:00,
2013-02-22 10:11:00,33.0,21.0,29.94,NNE,22,10.0,20.0,61,0.00,,,0.00,Weather View 32 v70,2013-02-22 15:11:00,
2013-02-22 10:16:00,33.0,21.0,29.94,NNW,337,7.0,20.0,61,0.00,,,0.00,Weather View 32 v70,2013-02-22 15:16:00,
2013-02-22 10:21:00,32.0,19.7,29.94,South,180,6.0,20.0,60,0.00,,,0.00,Weather View 32 v70,2013-02-22 15:21:00,
2013-02-22 10:26:00,32.0,19.7,29.94,West,270,2.0,20.0,60,0.00,,,0.00,Weather View 32 v70,2013-02-22 15:26:00,
2013-02-22 10:31:00,32.0,18.9,29.94,NE,45,10.0,20.0,58,0.00,,,0.00,Weather View 32 v70,2013-02-22 15:31:00,
2013-02-22 10:36:00,33.0,20.2,29.94,NW,315,13.0,20.0,59,0.00,,,0.00,Weather View 32 v70,2013-02-22 15:36:00,
2013-02-22 10:41:00,33.0,19.8,29.94,NW,315,6.0,20.0,58,0.00,,,0.00,Weather View 32 v70,2013-02-22 15:41:00,
2013-02-22 10:46:00,33.0,19.0,29.94,NW,315,12.0,20.0,56,0.00,,,0.00,Weather View 32 v70,2013-02-22 15:46:00,
2013-02-22 10:51:00,34.0,20.4,29.94,North,360,6.0,18.0,57,0.00,,,0.00,Weather View 32 v70,2013-02-22 15:51:00,
2013-02-22 10:56:00,34.0,19.5,29.94,NE,45,13.0,18.0,55,0.00,,,0.00,Weather View 32 v70,2013-02-22 15:56:00,
2013-02-22 11:01:00,34.0,19.5,29.94,North,360,9.0,18.0,55,0.00,,,0.00,Weather View 32 v70,2013-02-22 16:01:00,
2013-02-22 11:06:00,34.0,19.5,29.95,NE,45,3.0,18.0,55,0.00,,,0.00,Weather View 32 v70,2013-02-22 16:06:00,
2013-02-22 11:11:00,34.0,19.9,29.96,NNW,337,10.0,19.0,56,0.00,,,0.00,Weather View 32 v70,2013-02-22 16:11:00,
2013-02-22 11:16:00,34.0,19.1,29.96,NW,315,7.0,19.0,54,0.00,,,0.00,Weather View 32 v70,2013-02-22 16:16:00,
2013-02-22 11:21:00,34.0,18.6,29.95,West,270,6.0,19.0,53,0.00,,,0.00,Weather View 32 v70,2013-02-22 16:21:00,
2013-02-22 11:26:00,34.0,18.2,29.95,NE,45,9.0,20.0,52,0.00,,,0.00,Weather View 32 v70,2013-02-22 16:26:00,
2013-02-22 11:31:00,35.0,19.6,29.95,NW,315,1.0,20.0,53,0.00,,,0.00,Weather View 32 v70,2013-02-22 16:31:00,
2013-02-22 11:36:00,35.0,18.7,29.95,NE,45,6.0,20.0,51,0.00,,,0.00,Weather View 32 v70,2013-02-22 16:36:00,
2013-02-22 11:41:00,36.0,19.6,29.96,NNE,22,13.0,20.0,51,0.00,,,0.00,Weather View 32 v70,2013-02-22 16:41:00,
2013-02-22 11:46:00,35.0,18.7,29.96,NE,45,3.0,20.0,51,0.00,,,0.00,Weather View 32 v70,2013-02-22 16:46:00,
2013-02-22 11:51:00,35.0,19.6,29.95,SE,135,3.0,20.0,53,0.00,,,0.00,Weather View 32 v70,2013-02-22 16:51:00,
2013-02-22 11:56:00,37.0,19.6,29.96,ENE,67,7.0,20.0,49,0.00,,,0.00,Weather View 32 v70,2013-02-22 16:56:00,
2013-02-22 12:01:00,36.0,18.7,29.96,NNW,337,14.0,20.0,49,0.00,,,0.00,Weather View 32 v70,2013-02-22 17:01:00,
2013-02-22 12:06:00,37.0,19.6,29.93,SW,225,4.0,20.0,49,0.00,,,0.00,Weather View 32 v70,2013-02-22 17:06:00,
2013-02-22 12:11:00,35.0,17.8,29.96,NE,45,9.0,20.0,49,0.00,,,0.00,Weather View 32 v70,2013-02-22 17:11:00,
2013-02-22 12:16:00,36.0,18.2,29.96,NNE,22,13.0,20.0,48,0.00,,,0.00,Weather View 32 v70,2013-02-22 17:16:00,
2013-02-22 12:21:00,36.0,18.2,29.95,North,360,12.0,20.0,48,0.00,,,0.00,Weather View 32 v70,2013-02-22 17:21:00,
2013-02-22 12:26:00,35.0,17.3,29.94,North,360,10.0,20.0,48,0.00,,,0.00,Weather View 32 v70,2013-02-22 17:26:00,
2013-02-22 12:31:00,35.0,17.8,29.94,WSW,247,4.0,20.0,49,0.00,,,0.00,Weather View 32 v70,2013-02-22 17:31:00,
2013-02-22 12:36:00,36.0,18.2,29.94,NE,45,12.0,20.0,48,0.00,,,0.00,Weather View 32 v70,2013-02-22 17:36:00,
2013-02-22 12:41:00,35.0,17.3,29.94,NE,45,14.0,20.0,48,0.00,,,0.00,Weather View 32 v70,2013-02-22 17:41:00,
2013-02-22 12:46:00,36.0,17.7,29.94,East,90,7.0,20.0,47,0.00,,,0.00,Weather View 32 v70,2013-02-22 17:46:00,
2013-02-22 12:51:00,37.0,18.1,29.94,NNW,337,3.0,19.0,46,0.00,,,0.00,Weather View 32 v70,2013-02-22 17:51:00,
2013-02-22 12:56:00,37.0,17.6,29.94,SSW,202,1.0,19.0,45,0.00,,,0.00,Weather View 32 v70,2013-02-22 17:56:00,
2013-02-22 13:01:00,38.0,18.5,29.94,North,360,6.0,19.0,45,0.00,,,0.00,Weather View 32 v70,2013-02-22 18:01:00,
2013-02-22 13:06:00,38.0,17.5,29.96,East,90,10.0,19.0,43,0.00,,,0.00,Weather View 32 v70,2013-02-22 18:06:00,
2013-02-22 13:11:00,37.0,18.1,29.95,SSE,157,4.0,19.0,46,0.00,,,0.00,Weather View 32 v70,2013-02-22 18:11:00,
2013-02-22 13:16:00,36.0,17.2,29.96,ENE,67,8.0,19.0,46,0.00,,,0.00,Weather View 32 v70,2013-02-22 18:16:00,
2013-02-22 13:21:00,37.0,17.1,29.96,NE,45,5.0,19.0,44,0.00,,,0.00,Weather View 32 v70,2013-02-22 18:21:00,
2013-02-22 13:26:00,38.0,18.0,29.96,NW,315,4.0,19.0,44,0.00,,,0.00,Weather View 32 v70,2013-02-22 18:26:00,
2013-02-22 13:31:00,38.0,18.0,29.95,NE,45,6.0,18.0,44,0.00,,,0.00,Weather View 32 v70,2013-02-22 18:31:00,
2013-02-22 13:36:00,37.0,17.1,29.96,ENE,67,7.0,18.0,44,0.00,,,0.00,Weather View 32 v70,2013-02-22 18:36:00,
2013-02-22 13:41:00,38.0,18.0,29.96,NE,45,15.0,18.0,44,0.00,,,0.00,Weather View 32 v70,2013-02-22 18:41:00,
2013-02-22 13:46:00,38.0,18.0,29.96,WNW,292,1.0,17.0,44,0.00,,,0.00,Weather View 32 v70,2013-02-22 18:46:00,
2013-02-22 13:51:00,37.0,17.1,29.97,NE,45,12.0,17.0,44,0.00,,,0.00,Weather View 32 v70,2013-02-22 18:51:00,
2013-02-22 13:56:00,38.0,18.0,29.96,NNE,22,6.0,17.0,44,0.00,,,0.00,Weather View 32 v70,2013-02-22 18:56:00,
2013-02-22 14:01:00,38.0,16.9,29.97,NNE,22,13.0,17.0,42,0.00,,,0.00,Weather View 32 v70,2013-02-22 19:01:00,
2013-02-22 14:06:00,37.0,17.1,29.98,ENE,67,5.0,17.0,44,0.00,,,0.00,Weather View 32 v70,2013-02-22 19:06:00,
2013-02-22 14:11:00,39.0,17.8,29.97,SW,225,4.0,17.0,42,0.00,,,0.00,Weather View 32 v70,2013-02-22 19:11:00,
2013-02-22 14:16:00,37.0,16.6,29.97,NE,45,11.0,17.0,43,0.00,,,0.00,Weather View 32 v70,2013-02-22 19:16:00,
2013-02-22 14:21:00,38.0,17.5,29.97,North,360,3.0,17.0,43,0.00,,,0.00,Weather View 32 v70,2013-02-22 19:21:00,
2013-02-22 14:26:00,38.0,16.9,29.96,North,360,7.0,17.0,42,0.00,,,0.00,Weather View 32 v70,2013-02-22 19:26:00,
2013-02-22 14:31:00,38.0,16.9,29.96,NNE,22,8.0,17.0,42,0.00,,,0.00,Weather View 32 v70,2013-02-22 19:31:00,
2013-02-22 14:36:00,39.0,17.8,29.96,NE,45,9.0,17.0,42,0.00,,,0.00,Weather View 32 v70,2013-02-22 19:36:00,
2013-02-22 14:41:00,38.0,17.5,29.96,North,360,6.0,17.0,43,0.00,,,0.00,Weather View 32 v70,2013-02-22 19:41:00,
2013-02-22 14:46:00,38.0,17.5,29.96,NNE,22,9.0,15.0,43,0.00,,,0.00,Weather View 32 v70,2013-02-22 19:46:00,
2013-02-22 14:51:00,39.0,17.8,29.96,WNW,292,3.0,15.0,42,0.00,,,0.00,Weather View 32 v70,2013-02-22 19:51:00,
2013-02-22 14:56:00,39.0,17.8,29.96,NNE,22,10.0,15.0,42,0.00,,,0.00,Weather View 32 v70,2013-02-22 19:56:00,
2013-02-22 15:01:00,38.0,18.0,29.96,NE,45,5.0,15.0,44,0.00,,,0.00,Weather View 32 v70,2013-02-22 20:01:00,
2013-02-22 15:06:00,39.0,17.3,29.95,NW,315,4.0,15.0,41,0.00,,,0.00,Weather View 32 v70,2013-02-22 20:06:00,
2013-02-22 15:11:00,38.0,17.5,29.96,NE,45,9.0,16.0,43,0.00,,,0.00,Weather View 32 v70,2013-02-22 20:11:00,
2013-02-22 15:16:00,39.0,17.8,29.95,NNE,22,3.0,16.0,42,0.00,,,0.00,Weather View 32 v70,2013-02-22 20:16:00,
2013-02-22 15:21:00,38.0,16.9,29.95,SW,225,4.0,16.0,42,0.00,,,0.00,Weather View 32 v70,2013-02-22 20:21:00,
2013-02-22 15:26:00,39.0,17.8,29.95,North,360,5.0,16.0,42,0.00,,,0.00,Weather View 32 v70,2013-02-22 20:26:00,
2013-02-22 15:31:00,38.0,18.0,29.95,NNE,22,9.0,16.0,44,0.00,,,0.00,Weather View 32 v70,2013-02-22 20:31:00,
2013-02-22 15:36:00,38.0,18.5,29.94,NE,45,3.0,16.0,45,0.00,,,0.00,Weather View 32 v70,2013-02-22 20:36:00,
2013-02-22 15:41:00,38.0,18.0,29.94,NNE,22,7.0,16.0,44,0.00,,,0.00,Weather View 32 v70,2013-02-22 20:41:00,
2013-02-22 15:46:00,37.0,18.1,29.94,NE,45,6.0,16.0,46,0.00,,,0.00,Weather View 32 v70,2013-02-22 20:46:00,
2013-02-22 15:51:00,37.0,18.1,29.94,NE,45,10.0,16.0,46,0.00,,,0.00,Weather View 32 v70,2013-02-22 20:51:00,
2013-02-22 15:56:00,37.0,18.6,29.94,NNE,22,7.0,16.0,47,0.00,,,0.00,Weather View 32 v70,2013-02-22 20:56:00,
2013-02-22 16:01:00,37.0,18.1,29.94,North,360,10.0,16.0,46,0.00,,,0.00,Weather View 32 v70,2013-02-22 21:01:00,
2013-02-22 16:06:00,36.0,17.7,29.94,NNE,22,4.0,16.0,47,0.00,,,0.00,Weather View 32 v70,2013-02-22 21:06:00,
2013-02-22 16:11:00,36.0,18.7,29.93,South,180,2.0,16.0,49,0.00,,,0.00,Weather View 32 v70,2013-02-22 21:11:00,
2013-02-22 16:16:00,36.0,18.7,29.93,North,360,1.0,16.0,49,0.00,,,0.00,Weather View 32 v70,2013-02-22 21:16:00,
2013-02-22 16:21:00,36.0,19.1,29.92,NNW,337,10.0,16.0,50,0.00,,,0.00,Weather View 32 v70,2013-02-22 21:21:00,
2013-02-22 16:26:00,36.0,19.1,29.93,NNW,337,1.0,16.0,50,0.00,,,0.00,Weather View 32 v70,2013-02-22 21:26:00,
2013-02-22 16:31:00,36.0,19.1,29.94,WNW,292,1.0,16.0,50,0.00,,,0.00,Weather View 32 v70,2013-02-22 21:31:00,
2013-02-22 16:36:00,36.0,19.1,29.94,NE,45,1.0,15.0,50,0.00,,,0.00,Weather View 32 v70,2013-02-22 21:36:00,
2013-02-22 16:41:00,35.0,18.7,29.94,WSW,247,4.0,15.0,51,0.00,,,0.00,Weather View 32 v70,2013-02-22 21:41:00,
2013-02-22 16:46:00,35.0,19.1,29.94,ENE,67,1.0,15.0,52,0.00,,,0.00,Weather View 32 v70,2013-02-22 21:46:00,
2013-02-22 16:51:00,34.0,19.1,29.93,North,360,9.0,15.0,54,0.00,,,0.00,Weather View 32 v70,2013-02-22 21:51:00,
2013-02-22 16:56:00,34.0,19.5,29.92,East,90,0.0,15.0,55,0.00,,,0.00,Weather View 32 v70,2013-02-22 21:56:00,
2013-02-22 17:01:00,33.0,19.0,29.92,NNE,22,8.0,15.0,56,0.00,,,0.00,Weather View 32 v70,2013-02-22 22:01:00,
2013-02-22 17:06:00,33.0,19.4,29.92,NNE,22,6.0,15.0,57,0.00,,,0.00,Weather View 32 v70,2013-02-22 22:06:00,
2013-02-22 17:11:00,33.0,19.8,29.91,NNE,22,4.0,14.0,58,0.00,,,0.00,Weather View 32 v70,2013-02-22 22:11:00,
2013-02-22 17:16:00,32.0,18.9,29.90,North,360,7.0,15.0,58,0.00,,,0.00,Weather View 32 v70,2013-02-22 22:16:00,
2013-02-22 17:21:00,32.0,19.7,29.90,NNW,337,7.0,15.0,60,0.00,,,0.00,Weather View 32 v70,2013-02-22 22:21:00,
2013-02-22 17:26:00,32.0,20.4,29.91,NNE,22,7.0,15.0,62,0.00,,,0.00,Weather View 32 v70,2013-02-22 22:26:00,
2013-02-22 17:31:00,32.0,19.7,29.90,NNE,22,7.0,15.0,60,0.00,,,0.00,Weather View 32 v70,2013-02-22 22:31:00,
2013-02-22 17:36:00,31.0,18.7,29.90,NE,45,3.0,15.0,60,0.00,,,0.00,Weather View 32 v70,2013-02-22 22:36:00,
2013-02-22 17:41:00,31.0,19.5,29.90,NNE,22,4.0,15.0,62,0.00,,,0.00,Weather View 32 v70,2013-02-22 22:41:00,
2013-02-22 17:46:00,31.0,19.5,29.90,NNE,22,6.0,15.0,62,0.00,,,0.00,Weather View 32 v70,2013-02-22 22:46:00,
2013-02-22 17:51:00,31.0,19.5,29.90,East,90,4.0,15.0,62,0.00,,,0.00,Weather View 32 v70,2013-02-22 22:51:00,
2013-02-22 17:56:00,31.0,19.9,29.90,NNE,22,7.0,15.0,63,0.00,,,0.00,Weather View 32 v70,2013-02-22 22:56:00,
2013-02-22 18:01:00,30.0,18.9,29.90,NNE,22,7.0,15.0,63,0.00,,,0.00,Weather View 32 v70,2013-02-22 23:01:00,
2013-02-22 18:06:00,30.0,19.3,29.89,North,360,7.0,15.0,64,0.00,,,0.00,Weather View 32 v70,2013-02-22 23:06:00,
2013-02-22 18:11:00,30.0,19.7,29.89,NE,45,8.0,15.0,65,0.00,,,0.00,Weather View 32 v70,2013-02-22 23:11:00,
2013-02-22 18:16:00,30.0,19.7,29.89,NE,45,9.0,12.0,65,0.00,,,0.00,Weather View 32 v70,2013-02-22 23:16:00,
2013-02-22 18:21:00,30.0,19.7,29.89,North,360,3.0,12.0,65,0.00,,,0.00,Weather View 32 v70,2013-02-22 23:21:00,
2013-02-22 18:26:00,29.0,19.1,29.89,NNW,337,4.0,11.0,66,0.00,,,0.00,Weather View 32 v70,2013-02-22 23:26:00,
2013-02-22 18:31:00,29.0,19.4,29.89,NE,45,2.0,11.0,67,0.00,,,0.00,Weather View 32 v70,2013-02-22 23:31:00,
2013-02-22 18:36:00,29.0,19.4,29.89,NNE,22,4.0,11.0,67,0.00,,,0.00,Weather View 32 v70,2013-02-22 23:36:00,
2013-02-22 18:41:00,29.0,19.8,29.89,NNE,22,3.0,11.0,68,0.00,,,0.00,Weather View 32 v70,2013-02-22 23:41:00,
2013-02-22 18:46:00,28.0,18.8,29.89,NNE,22,0.0,10.0,68,0.00,,,0.00,Weather View 32 v70,2013-02-22 23:46:00,
2013-02-22 18:51:00,28.0,19.1,29.89,North,360,3.0,9.0,69,0.00,,,0.00,Weather View 32 v70,2013-02-22 23:51:00,
2013-02-22 18:56:00,28.0,19.5,29.89,North,360,0.0,9.0,70,0.00,,,0.00,Weather View 32 v70,2013-02-22 23:56:00,
2013-02-22 19:01:00,27.0,19.2,29.88,NNE,22,4.0,9.0,72,0.00,,,0.00,Weather View 32 v70,2013-02-23 00:01:00,
2013-02-22 19:06:00,28.0,20.1,29.88,NE,45,5.0,9.0,72,0.00,,,0.00,Weather View 32 v70,2013-02-23 00:06:00,
2013-02-22 19:11:00,28.0,19.8,29.88,NNE,22,3.0,9.0,71,0.00,,,0.00,Weather View 32 v70,2013-02-23 00:11:00,
2013-02-22 19:16:00,28.0,19.8,29.89,NNE,22,4.0,9.0,71,0.00,,,0.00,Weather View 32 v70,2013-02-23 00:16:00,
2013-02-22 19:21:00,28.0,19.8,29.88,NE,45,6.0,8.0,71,0.00,,,0.00,Weather View 32 v70,2013-02-23 00:21:00,
2013-02-22 19:26:00,28.0,19.5,29.88,ENE,67,5.0,9.0,70,0.00,,,0.00,Weather View 32 v70,2013-02-23 00:26:00,
2013-02-22 19:31:00,28.0,19.5,29.88,NNW,337,1.0,9.0,70,0.00,,,0.00,Weather View 32 v70,2013-02-23 00:31:00,
2013-02-22 19:36:00,28.0,19.8,29.89,NNW,337,2.0,9.0,71,0.00,,,0.00,Weather View 32 v70,2013-02-23 00:36:00,
2013-02-22 19:41:00,27.0,19.2,29.88,NW,315,2.0,9.0,72,0.00,,,0.00,Weather View 32 v70,2013-02-23 00:41:00,
2013-02-22 19:46:00,27.0,19.5,29.88,ENE,67,1.0,9.0,73,0.00,,,0.00,Weather View 32 v70,2013-02-23 00:46:00,
2013-02-22 19:51:00,27.0,19.5,29.87,NNE,22,2.0,9.0,73,0.00,,,0.00,Weather View 32 v70,2013-02-23 00:51:00,
2013-02-22 19:56:00,27.0,19.5,29.87,NNE,22,2.0,9.0,73,0.00,,,0.00,Weather View 32 v70,2013-02-23 00:56:00,
2013-02-22 20:01:00,27.0,19.5,29.87,NE,45,4.0,9.0,73,0.00,,,0.00,Weather View 32 v70,2013-02-23 01:01:00,
2013-02-22 20:06:00,27.0,19.5,29.86,NE,45,1.0,9.0,73,0.00,,,0.00,Weather View 32 v70,2013-02-23 01:06:00,
2013-02-22 20:11:00,27.0,19.5,29.86,NNE,22,5.0,9.0,73,0.00,,,0.00,Weather View 32 v70,2013-02-23 01:11:00,
2013-02-22 20:16:00,27.0,19.5,29.87,NNE,22,3.0,9.0,73,0.00,,,0.00,Weather View 32 v70,2013-02-23 01:16:00,
2013-02-22 20:21:00,27.0,19.5,29.87,NNE,22,0.0,9.0,73,0.00,,,0.00,Weather View 32 v70,2013-02-23 01:21:00,
2013-02-22 20:26:00,27.0,19.8,29.87,NNE,22,0.0,8.0,74,0.00,,,0.00,Weather View 32 v70,2013-02-23 01:26:00,
2013-02-22 20:31:00,26.0,19.5,29.86,NNE,22,2.0,8.0,76,0.00,,,0.00,Weather View 32 v70,2013-02-23 01:31:00,
2013-02-22 20:36:00,26.0,19.5,29.87,North,360,0.0,8.0,76,0.00,,,0.00,Weather View 32 v70,2013-02-23 01:36:00,
2013-02-22 20:41:00,26.0,19.5,29.87,North,360,1.0,8.0,76,0.00,,,0.00,Weather View 32 v70,2013-02-23 01:41:00,
2013-02-22 20:46:00,25.0,19.1,29.87,North,360,3.0,8.0,78,0.00,,,0.00,Weather View 32 v70,2013-02-23 01:46:00,
2013-02-22 20:51:00,25.0,19.1,29.87,North,360,2.0,8.0,78,0.00,,,0.00,Weather View 32 v70,2013-02-23 01:51:00,
2013-02-22 20:56:00,25.0,19.4,29.86,North,360,2.0,8.0,79,0.00,,,0.00,Weather View 32 v70,2013-02-23 01:56:00,
2013-02-22 21:01:00,25.0,19.4,29.87,NNW,337,5.0,8.0,79,0.00,,,0.00,Weather View 32 v70,2013-02-23 02:01:00,
2013-02-22 21:06:00,25.0,19.7,29.87,NNW,337,0.0,8.0,80,0.00,,,0.00,Weather View 32 v70,2013-02-23 02:06:00,
2013-02-22 21:11:00,25.0,20.0,29.86,North,360,1.0,6.0,81,0.00,,,0.00,Weather View 32 v70,2013-02-23 02:11:00,
2013-02-22 21:16:00,24.0,19.0,29.86,North,360,0.0,6.0,81,0.00,,,0.00,Weather View 32 v70,2013-02-23 02:16:00,
2013-02-22 21:21:00,24.0,19.0,29.86,North,360,3.0,6.0,81,0.00,,,0.00,Weather View 32 v70,2013-02-23 02:21:00,
2013-02-22 21:26:00,24.0,19.6,29.86,North,360,0.0,6.0,83,0.00,,,0.00,Weather View 32 v70,2013-02-23 02:26:00,
2013-02-22 21:31:00,23.0,18.9,29.87,North,360,2.0,6.0,84,0.00,,,0.00,Weather View 32 v70,2013-02-23 02:31:00,
2013-02-22 21:36:00,23.0,19.2,29.86,North,360,1.0,6.0,85,0.00,,,0.00,Weather View 32 v70,2013-02-23 02:36:00,
2013-02-22 21:41:00,23.0,19.2,29.86,North,360,0.0,6.0,85,0.00,,,0.00,Weather View 32 v70,2013-02-23 02:41:00,
2013-02-22 21:46:00,23.0,19.2,29.85,North,360,0.0,6.0,85,0.00,,,0.00,Weather View 32 v70,2013-02-23 02:46:00,
2013-02-22 21:51:00,22.0,18.7,29.86,North,360,0.0,6.0,87,0.00,,,0.00,Weather View 32 v70,2013-02-23 02:51:00,
2013-02-22 21:56:00,22.0,18.7,29.85,North,360,0.0,6.0,87,0.00,,,0.00,Weather View 32 v70,2013-02-23 02:56:00,
2013-02-22 22:01:00,22.0,19.3,29.85,North,360,2.0,5.0,89,0.00,,,0.00,Weather View 32 v70,2013-02-23 03:01:00,
2013-02-22 22:06:00,22.0,19.5,29.85,North,360,2.0,5.0,90,0.00,,,0.00,Weather View 32 v70,2013-02-23 03:06:00,
2013-02-22 22:11:00,23.0,21.0,29.85,North,360,2.0,4.0,92,0.00,,,0.00,Weather View 32 v70,2013-02-23 03:11:00,
2013-02-22 22:16:00,23.0,21.0,29.85,North,360,0.0,4.0,92,0.00,,,0.00,Weather View 32 v70,2013-02-23 03:16:00,
2013-02-22 22:21:00,22.0,19.5,29.85,North,360,0.0,4.0,90,0.00,,,0.00,Weather View 32 v70,2013-02-23 03:21:00,
2013-02-22 22:26:00,22.0,19.8,29.85,North,360,1.0,3.0,91,0.00,,,0.00,Weather View 32 v70,2013-02-23 03:26:00,
2013-02-22 22:31:00,22.0,19.8,29.85,North,360,1.0,3.0,91,0.00,,,0.00,Weather View 32 v70,2013-02-23 03:31:00,
2013-02-22 22:36:00,21.0,19.3,29.85,North,360,2.0,3.0,93,0.00,,,0.00,Weather View 32 v70,2013-02-23 03:36:00,
2013-02-22 22:41:00,22.0,20.5,29.85,NNE,22,4.0,4.0,94,0.00,,,0.00,Weather View 32 v70,2013-02-23 03:41:00,
2013-02-22 22:46:00,22.0,20.5,29.86,NNE,22,3.0,4.0,94,0.00,,,0.00,Weather View 32 v70,2013-02-23 03:46:00,
2013-02-22 22:51:00,22.0,20.5,29.86,NNE,22,1.0,4.0,94,0.00,,,0.00,Weather View 32 v70,2013-02-23 03:51:00,
2013-02-22 22:56:00,22.0,20.3,29.85,NNE,22,2.0,4.0,93,0.00,,,0.00,Weather View 32 v70,2013-02-23 03:56:00,
2013-02-22 23:01:00,22.0,20.3,29.85,NNE,22,0.0,4.0,93,0.00,,,0.00,Weather View 32 v70,2013-02-23 04:01:00,
2013-02-22 23:06:00,21.0,19.3,29.86,NNE,22,0.0,4.0,93,0.00,,,0.00,Weather View 32 v70,2013-02-23 04:06:00,
2013-02-22 23:11:00,22.0,20.5,29.85,NNE,22,0.0,4.0,94,0.00,,,0.00,Weather View 32 v70,2013-02-23 04:11:00,
2013-02-22 23:16:00,21.0,19.8,29.86,NNE,22,2.0,4.0,95,0.00,,,0.00,Weather View 32 v70,2013-02-23 04:16:00,
2013-02-22 23:21:00,21.0,20.0,29.86,NNW,337,4.0,4.0,96,0.00,,,0.00,Weather View 32 v70,2013-02-23 04:21:00,
2013-02-22 23:26:00,21.0,20.0,29.86,North,360,2.0,5.0,96,0.00,,,0.00,Weather View 32 v70,2013-02-23 04:26:00,
2013-02-22 23:31:00,21.0,20.0,29.86,North,360,1.0,5.0,96,0.00,,,0.00,Weather View 32 v70,2013-02-23 04:31:00,
2013-02-22 23:36:00,21.0,20.0,29.86,North,360,0.0,5.0,96,0.00,,,0.00,Weather View 32 v70,2013-02-23 04:36:00,
2013-02-22 23:41:00,21.0,20.3,29.85,North,360,4.0,5.0,97,0.00,,,0.00,Weather View 32 v70,2013-02-23 04:41:00,
2013-02-22 23:46:00,21.0,20.3,29.85,North,360,1.0,5.0,97,0.00,,,0.00,Weather View 32 v70,2013-02-23 04:46:00,
2013-02-22 23:51:00,21.0,20.3,29.85,NE,45,2.0,5.0,97,0.00,,,0.00,Weather View 32 v70,2013-02-23 04:51:00,
2013-02-22 23:56:00,21.0,20.3,29.85,NE,45,0.0,5.0,97,0.00,,,0.00,Weather View 32 v70,2013-02-23 04:56:00,